Location: Newark
(37.9000°S, 166.5167°W)
Time: 07:26:05
(UTC+00:00)

Envisat - Pass Details

Date: 20 January 2020
Orbit: 764 x 766 km, 98.1° (Epoch: 20 February)

Event Time Altitude Azimuth Distance (km) Brightness Sun altitude
Rises 06:48:08 0° 182° (S) 3,267 6.7 -4.3°
Reaches altitude 10° 06:50:49 10° 194° (SSW) 2,333 6.2 -4.7°
Maximum altitude 06:54:54 25° 247° (WSW) 1,545 5.8 -5.4°
Drops below altitude 10° 06:58:58 10° 300° (WNW) 2,310 5.9 -6.1°
Sets 07:01:37 0° 313° (NW) 3,228 6.4 -6.6°
